Weather in Pionerskoye

Russia / Kurgan Oblast     55°15′51″N   67°30′54″E
temp.,
°C
wind,
m/s
gust,
m/s
humid.,
%
clouds,
%
prec.,
mm/h
press.,
hPa
HPBL,
m
14 april, wed
wed1423:00+4sw589568 0.0 1039218
02:00+2sw5109742 0.0 1037193
05:00+2sw5129520 0.0 1036246
08:00+4sw61387100 0.0 1035303
11:00+9wsw71174100 0.0 1033405
14:00+13wsw79685 0.0 1031695
17:00+14w59715 0.0 1029760
20:00+11wsw48855 0.0 1029127
15 april, thu
thu1523:00+9wsw47895 0.0 1028104
02:00+8wsw36895 0.0 102873
05:00+7wsw368852 0.0 102780
08:00+10wsw47775 0.0 1027179
11:00+14wsw57587 0.0 1025471
14:00+17wsw67475 0.0 1024832
17:00+17wsw58455 0.0 1022817
20:00+12sw49635 0.0 1021136
16 april, fri
fri1623:00+9sw49685 0.0 1019144
02:00+7wsw4107038 0.0 1018144
05:00+6wsw497498 0.0 1017128
08:00+9w477176 0.0 1016180
11:00+12nnw6671100 0.0 1017749
14:00+7nne81082100 0.0 1019720
17:00+5ne61080100 0.0 1021838
20:00+5ene5969100 0.0 1022729
17 april, sat
sat1723:00+3ne497326 0.0 1022380
02:00+1ne48825 0.0 1023253
05:00−1ene36835 0.0 1023189
08:00+1ese23630 0.0 1022383
11:00+4w23515 0.0 10201188
14:00+7w464191 0.0 10182006
17:00+8wnw7939100 0.0 10162154
20:00+2n81193100 0.3 1018813
18 april, sun
sun1823:00+1nnw496895 0.3 1019409
02:000n3767100 0.0 1019360
05:00−1nnw1163100 0.0 101965
08:000nw0145100 0.0 1019502
11:00+3sw3339100 0.0 10181997
14:00+3sw3356100 0.2 10181397
17:00−1nne8117866 2.6 1021890
20:00−2nne612535 0.0 1025612